BEESAT-4 (41619 NORAD) Tracking and Keplerian Element Data

This shows tracking and keplerian element data for the satellite.

Feedback or suggestion? Click here.




ElementValue
Catalog41619
NameBEESAT-4
Epoch Orbit34469
Epoch Day324.87650431
Epoch Year2022
RAAN11.6224
Inclination97.1971
Eccentricity0.0006405
Argument of Perigee275.8123
Mean Anonmoly84.2391
Mean Motion15.36379672
Decay Rate0.00017537
L11 41619U 16040W 22324.87650431 .00017537 00000+0 49564-3 0 9992
L22 41619 97.1971 11.6224 0006405 275.8123 84.2391 15.36379672344698



Live tracking and technical data element details for BEESAT-4 (NORAD 41619). BEESAT-4 can be tracked NOW for your location showing map with azimuth and elevation plus other details from your city location.







IsCatalogInMostPopularTable: catalog: 41619, numindb: 603
Update: records affected: 1



GetName: 41619 BEESAT-4

Hit Count: updated at: Fri, 02 Dec 2022 12:55:36 GMT